[Iaude] MPEC T08: COMET C/2023 Q1 (PANSTARRS)

mpec at marsden.cfa.harvard.edu mpec at marsden.cfa.harvard.edu
Mon Oct 2 22:37:06 EDT 2023


M.P.E.C. 2023-T08                               Issued 2023 October 3, 02:34 UT

     The Minor Planet Electronic Circulars contain information on unusual
         minor planets, routine data on comets and natural satellites,
         and occasional editorial announcements.  They are published
    on behalf of Division F of the International Astronomical Union by the
          Minor Planet Center, Smithsonian Astrophysical Observatory,
                          Cambridge, MA 02138, U.S.A.
			  
             Prepared using the Tamkin Foundation Computer Network

                              MPC at CFA.HARVARD.EDU
            URL https://www.minorplanetcenter.net/    ISSN 1523-6714

                          COMET C/2023 Q1 (PANSTARRS)                           

     P. Veres found an object in the isolated tracklet file, linking five 
tracklets on 5 distinct nights from Aug. 20 to Sep. 20 UT, showing a near-
parabolic orbit. Subsequently, R. Weryk analyzed the Pan-STARRS 1 (F51) images
from Aug. 20, noting a very condensed 0".2 tail in three 45-second w-band
survey images. R. Weryk also found prediscovery positions back to Jul. 2023 UT.
Additional reports of cometary features are as follows:

OC   Date        Reporter           Coma    Tail    PA          Exposures

F51  2023-09-17  R. Weryk           0".2                          4x45s
Q62  2023-09-23  H. Sato            6"                           23x60s

Observations:
    CK23Q010  C2023 07 25.58745400 45 43.118-01 20 58.81         22.51GVET008F51
    CK23Q010  C2023 07 25.59744200 45 43.109-01 20 57.38         22.76GVET008F51
    CK23Q010  C2023 07 25.60740000 45 43.062-01 20 56.55         22.51GVET008F51
    CK23Q010  C2023 07 25.61740400 45 43.066-01 20 55.57         23.04GVET008F51
    CK23Q010  C2023 07 26.57018700 45 41.000-01 19 12.75         22.09GVET008F52
    CK23Q010  C2023 07 29.58522200 45 30.315-01 14 04.85         22.70GVET008F52
    CK23Q010  C2023 07 29.59281700 45 30.281-01 14 04.50         22.85GVET008F52
    CK23Q010* C2023 08 20.55451600 40 52.321-00 49 25.51         22.04wXET008F51
    CK23Q010  C2023 08 20.56726600 40 52.058-00 49 24.91         22.38wXET008F51
    CK23Q010  C2023 08 20.57997000 40 51.755-00 49 24.38         22.09wXET008F51
    CK23Q010 1C2023 09 06.37749800 33 24.210-00 43 39.29         20.69GVET008G96
    CK23Q010 1C2023 09 06.38260200 33 24.084-00 43 39.25         20.69GVET008G96
    CK23Q010 1C2023 09 06.38769800 33 23.850-00 43 38.57         21.07GVET008G96
    CK23Q010 1C2023 09 06.39279300 33 23.670-00 43 38.53         20.72GVET008G96
    CK23Q010  C2023 09 09.43430200 31 43.393-00 43 27.64         21.36wXET008F51
    CK23Q010  C2023 09 09.46626300 31 42.283-00 43 27.66         21.48wXET008F51
    CK23Q010  C2023 09 09.48077700 31 41.789-00 43 27.56         21.36wXET008F51
    CK23Q010  C2023 09 17.43571800 26 56.323-00 43 46.11         21.17wXET008F51
    CK23Q010  C2023 09 17.44829900 26 55.844-00 43 46.08         21.06wXET008F51
    CK23Q010  C2023 09 17.46096600 26 55.365-00 43 46.06         21.27wXET008F51
    CK23Q010  C2023 09 17.47360200 26 54.864-00 43 46.14         21.07wXET008F51
    CK23Q010 1C2023 09 20.25980500 25 08.382-00 44 01.72         20.56GVET008G96
    CK23Q010 1C2023 09 20.26550600 25 08.137-00 44 02.15         20.68GVET008G96
    CK23Q010 1C2023 09 20.27120000 25 07.914-00 44 02.33         20.79GVET008G96
    CK23Q010 1C2023 09 20.27689100 25 07.705-00 44 02.22         20.71GVET008G96
    CK23Q010  C2023 09 21.43443000 24 22.564-00 44 08.59         20.84GVET008F51
    CK23Q010  C2023 09 22.47719300 23 41.538-00 44 14.91         20.43GVET008F52
    CK23Q010  C2023 09 22.48824500 23 41.105-00 44 14.90         20.50GVET008F52
    CK23Q010  C2023 09 22.53545400 23 39.162-00 44 15.51         20.20GVET008F52
    CK23Q010 1C2023 09 23.67681 00 22 53.95 -00 44 19.5                VET008Q62
    CK23Q010 1C2023 09 23.68634 00 22 53.57 -00 44 20.1          20.4 GVET008Q62
    CK23Q010 KB2023 09 24.91900 00 22 04.402-00 44 29.04         20.3 GXET008L38
    CK23Q010 KB2023 09 24.93304 00 22 03.835-00 44 29.00         20.3 GXET008L38
    CK23Q010 KC2023 09 26.02005300 21 20.01 -00 44 34.6          19.9 GVET008L06
    CK23Q010 KC2023 09 26.02988900 21 19.60 -00 44 34.4          20.1 GVET008L06
    CK23Q010 KC2023 09 26.04016000 21 19.29 -00 44 35.1          20.6 GVET008L01
    CK23Q010 KC2023 09 26.05166700 21 18.72 -00 44 34.6          20.0 GVET008L06
    CK23Q010 KC2023 09 26.06597700 21 18.13 -00 44 35.3          20.5 GVET008L01
    CK23Q010 KC2023 09 26.08328000 21 17.42 -00 44 34.6          19.9 GVET008L06
    CK23Q010 1C2023 09 26.36061700 21 06.296-00 44 36.02         20.08GVET008G96
    CK23Q010 1C2023 09 26.36637400 21 06.084-00 44 36.24         19.97GVET008G96
    CK23Q010 1C2023 09 26.40354700 21 04.529-00 44 36.49         20.11GVET008G96
    CK23Q010 1C2023 09 26.40933300 21 04.259-00 44 36.31         20.65GVET008G96
    CK23Q010 KC2023 09 27.00320 00 20 40.28 -00 44 39.8          20.3 RqET008L27
    CK23Q010 KC2023 09 27.02666 00 20 39.35 -00 44 40.2          20.4 RqET008L27
    CK23Q010 KC2023 09 27.05012 00 20 38.38 -00 44 39.9          20.6 RqET008L27

Observer details:
F51 Pan-STARRS 1, Haleakala.  Observers J. Bulger, K. Chambers, T. Lowe, P.
    Minguez, A. Schultz, I. Smith.  Measurers S. Chastel, J. Fairlamb, M.
    Huber, Y. Ramanjooloo, R. Wainscoat, R. Weryk, K. Chambers, T. de Boer, H.
    Gao, C.-C. Lin, E. Magnier.  1.8-m Ritchey-Chretien + CCD.
F52 Pan-STARRS 2, Haleakala.  Observers J. Bulger, K. Chambers, T. Dukes, T.
    Lowe, P. Minguez, A. Schultz, I. Smith.  Measurers S. Chastel, J.
    Fairlamb, M. Huber, Y. Ramanjooloo, R. Wainscoat, R. Weryk.  1.8-m
    Ritchey-Chretien + CCD.
G96 Mt. Lemmon Survey.  Observers A. R. Gibbs, J. K. Hogan, R. A. Kowalski.
    Measurers E. J. Christensen, D. Fay, J. B. Fazekas, D. C. Fuls, A. R.
    Gibbs, A. D. Grauer, H. Groeller, J. K. Hogan, R. A. Kowalski, S. M.
    Larson, G. J. Leonard, D. Rankin, R. L. Seaman, A. Serrano, F. C. Shelly,
    K. W. Wierzchos.  1.5-m reflector + 10K CCD.
L01 Visnjan Observatory, Tican.  Observers K. Korlevic, L. Poropat.  Measurer
    K. Korlevic.  1.0-m f/2.9 reflector + CCD.
L06 Sormano 2 Observatory, Bellagio Via Lattea.  Observer G. Ventre.
    Measurers P. Sicoli, G. Ventre.  0.36m Schmidt Cassegrain + CCD.
L27 29PREMOTE Observatory, Dauban.  Observer J.-F. Soulier.  0.25-m f/3.5
    Newtonian reflector + CCD.
L38 Gartensternwarte Schafsweide, Sehlde.  Observer A. Opitz.  0.35-m f/5.2
    Newton + CMO.
Q62 iTelescope Observatory, Siding Spring.  Observer H. Sato.  0.51-m f/6.8
    astrograph + CCD + f/4.5 focal reducer.

Orbital elements:
    C/2023 Q1 (PANSTARRS)                                                       
Epoch 2023 Sept. 13.0 TT = JDT 2460200.5                                        
T 2024 Dec. 1.07056 TT                                  Rudenko                 
q   2.5721182            (2000.0)            P               Q                  
z  -0.0022490      Peri.   84.47229     -0.00387555     -0.99721549             
 +/-0.0000014      Node     7.15867     +0.50089584     -0.06639330             
e   1.0057847      Incl.   36.69919     +0.86549890     +0.03395887             
>From 46 observations 2023 July 25-Sept. 27, mean residual 0".1.                 
                                                                                
Ephemeris:
Date    TT    R. A. (2000) Decl.     Delta      r    Elong.  Phase   m1    m2
2023 09 03    00 35 09.2 -00 44 05   4.2667  5.1784   151.9     5.3  20.3
...
2023 09 18    00 26 35.0 -00 43 48   4.0760  5.0641   168.2     2.3  20.1
...
2023 09 26    00 21 20.9 -00 44 33   4.0019  5.0032   176.4     0.7  20.0
...
2023 10 02    00 17 15.8 -00 44 50   3.9596  4.9575   174.9     1.0  19.9
2023 10 03    00 16 34.5 -00 44 50   3.9537  4.9499   173.8     1.2  19.9
2023 10 04    00 15 53.2 -00 44 48   3.9480  4.9423   172.8     1.5  19.9
...
2023 10 10    00 11 45.8 -00 44 09   3.9209  4.8966   166.2     2.8  19.9
...
2023 10 18    00 06 24.5 -00 41 25   3.9020  4.8358   157.1     4.6  19.8
...
2023 11 02    23 57 29.8 -00 27 48   3.9158  4.7219   140.3     7.7  19.7

M. P. C. Staff               (C) Copyright 2023 MPC           M.P.E.C. 2023-T08





More information about the Iaude mailing list